Regional Weather Roundup
Issued by NWS

Home | Current Version | Previous Version | Graphics & Text | Print | Product List | Glossary On
Versions: 1 2 3 4 5 6 7 8 9 10 11 12 13 14 15 16 17 18 19 20 21 22 23 24 25 26 27 28 29 30 31 32 33 34 35 36 37 38 39 40 41 42 43 44 45 46 47 48 49 50
000
ASUS43 KDTX 041010
RWRMI
MICHIGAN HOURLY REGIONAL WEATHER ROUNDUP
NATIONAL WEATHER SERVICE DETROIT/PONTIAC MI
500 AM EST WED MAR 04 2015

NOTE: "FAIR" INDICATES FEW OR NO CLOUDS BELOW 12,000 FEET WITH NO
SIGNIFICANT WEATHER AND/OR OBSTRUCTION TO VISIBILITY.

MIZ047>049-052>055-059>063-066>070-074>076-081>083-041100-
SOUTHEAST LOWER MICHIGAN

CITY           SKY/WX    TMP DP  RH WIND       PRES   REMARKS
ADRIAN         CLOUDY    31  23  72 NW7       29.85R
ALMA           CLOUDY    28  22  78 SW5       29.81R
ANN ARBOR      CLOUDY    30  23  75 W5        29.84R
BAD AXE        PTCLDY    24  20  86 W6        29.79R
DETROIT CITY   CLOUDY    32  22  66 VRB5      29.85R
DETROIT        CLOUDY    31  23  72 W6        29.86R
FLINT          CLOUDY    30  22  72 SW7       29.83R
GROSSE ILE     CLOUDY    32  25  74 NW7       29.85R
HILLSDALE      CLOUDY    30  25  82 W6        29.84R
HOWELL         CLOUDY    28  23  81 SW5       29.81S

CITY           SKY/WX    TMP DP  RH WIND       PRES   REMARKS
JACKSON        CLOUDY    29  22  75 SW6       29.83R
LAMBERTVILLE   CLOUDY    34  27  75 CALM      29.85S
LANSING        CLOUDY    29  22  75 W8        29.83R
LAPEER         NOT AVBL
MASON          CLOUDY    29  22  77 SW3       29.83R
MONROE         CLOUDY    32  25  74 NW7       29.85R
MT. CLEMENS    CLOUDY    30  21  69 SW6       29.82R
PONTIAC        CLOUDY    28  21  75 W7        29.81R
PORT HOPE        N/A     26  19  74 W6        29.76R
PORT HURON     CLOUDY    28  21  74 CALM      29.83R
TRI CITIES     MOCLDY    28  19  69 SW9       29.80R
YPSILANTI      CLOUDY    33  23  66 N7        29.85R
$$
MIZ043>046-050>051-056>058-064>065-071>073-077>080-041100-
SOUTHWEST LOWER MICHIGAN

CITY           SKY/WX    TMP DP  RH WIND       PRES   REMARKS
BATTLE CREEK   CLOUDY    30  23  75 SW7       29.84R
BENTON HARBOR  CLOUDY    30  25  81 W7        29.88R
BIG RAPIDS     MOCLDY    24  20  83 W6        29.80R
COLDWATER      CLOUDY    29  24  79 W5        29.84S
HOLLAND        CLOUDY    30  19  63 NW10      29.87R
GRAND RAPIDS   CLOUDY    29  21  72 W9        29.84R
KALAMAZOO      CLOUDY    30  23  75 W7        29.85R
MARSHALL       CLOUDY    28  23  81 SW5       29.84R
MUSKEGON       PTCLDY    27  17  66 NW14      29.87R
$$
MIZ016>042-041100-
NORTHERN LOWER MICHIGAN

CITY           SKY/WX    TMP DP  RH WIND       PRES   REMARKS
ALPENA         CLOUDY    20  12  71 VRB5      29.76R
BEAVER ISLAND  CLOUDY    16   9  73 NW10G16   29.80R
BELLAIRE       MOCLDY    19  11  72 W3        29.82R
CADILLAC       CLOUDY    22  16  78 NW10      29.76R
CHARLEVOIX     PTCLDY    18   9  68 NW12      29.83R
FRANKFORT      MOSUNNY   21  12  69 NW14      29.83R
GAYLORD        CLOUDY    17  10  74 NW9       29.74R
GRAYLING       MOCLDY    19  12  77 W12G17    29.77R
HARBOR SPRINGS FLURRIES  18  11  74 NW7       29.79R
HOUGHTON LAKE  LGT SNOW  20  16  84 NW9       29.77R FOG
MANISTEE       CLOUDY    25  12  58 NW17      29.84R
OSCODA         MOCLDY    19  18  96 SW8       29.75R
PELLSTON       CLOUDY    17  10  74 NW15      29.79R
TRAVERSE CITY  CLOUDY    22  13  68 N3        29.80R
$$
MIZ007>008-015-041100-
EASTERN UPPER MICHIGAN

CITY           SKY/WX    TMP DP  RH WIND       PRES   REMARKS
KINROSS        CLOUDY    14  12  92 NW14      29.74R WCI  -1
MACKINAC ISLAN CLOUDY    16   8  70 W10G20    29.77R
NEWBERRY       MOCLDY    10   4  75 W13       29.76R WCI  -5
S. S. MARIE    MIX PCPN  13   5  70 NW17G29   29.74R WCI  -4
$$
MIZ004>006-011>014-085-041100-
CENTRAL UPPER MICHIGAN

CITY           SKY/WX    TMP DP  RH WIND       PRES   REMARKS
MANISTIQUE     CLOUDY    13   7  77 NW7       29.81R
ESCANABA       CLOUDY    14   3  62 W5        29.84R
MENOMINEE      CLEAR     12   1  62 NW7       29.86R
SAWYER-GWINN   CLEAR      8  -1  67 NW6       29.79R
$$
MIZ001>003-009>011-084-041100-
WESTERN UPPER MICHIGAN

CITY           SKY/WX    TMP DP  RH WIND       PRES   REMARKS
IRON MOUNTAIN  MOCLDY     8  -2  63 W10G16    29.81R WCI  -6
HOUGHTON       CLEAR      3  -2  79 W18G26    29.78R WCI -17
COPPER HARBOR    N/A      5  -4  66 N21G32    29.81R WCI -16
IRONWOOD       CLEAR      0  -6  78 W17       29.86R WCI -21
$$

ABBREVIATIONS USED IN REMARKS
   TC - TEMPERATURE IN CELSIUS
  WCI - WIND CHILL INDEX
   HX - HEAT INDEX
  VSB - VISIBILITY




USA.gov is the U.S. government's official web portal to all federal, state and local government web resources and services.